Location: Unspecified
(43.4354°N, 0.0000°E)
Time: 09:17:07
(UTC+00:00)

Transit 2A - Pass Details

Date: 25 June 2019
Orbit: 594 x 964 km, 66.7° (Epoch: 19 July)

Event Time Altitude Azimuth Distance (km) Brightness Sun altitude
Rises 09:10:33 0° 322° (NW) 3,397 9.0 49.5°
Reaches altitude 10° 09:13:17 10° 314° (NW) 2,396 8.3 50.0°
Maximum altitude 09:18:13 35° 250° (WSW) 1,193 7.1 50.8°
Drops below altitude 10° 09:22:40 10° 185° (S) 2,157 8.6 51.6°
Sets 09:25:01 0° 176° (S) 3,015 9.3 52.0°
